[[{"header":{"parameterUnit":"m.s-1","parameterCategory":1,"la1":30.2991,"la2":30.254,"lo1":-89.0895,"lo2":-89.0444,"dy":0.0017,"dx":0.0017,"nx":28,"ny":28,"refTime":"2023-08-18T03:00:00:Z","depth":0,"parameterNumber":2,"parameterNumberName":"U-component_of_WINDS"},"data":[0,0,0,0,0,0,0,0,0,0,0,0,0,0,0,0,0,0,0,0,0,0,0,0,0,0,0,0,0,0,0,0,0,0,0,0,0,0,0,0,0,0,0,0,0,0,0,0,0,0,0,0,0,0,0,0,0,0,-0.4167,-0.4166,0,-0.4082,-0.4081,-0.408,-0.4084,-0.4085,-0.4086,-0.4088,-0.3993,-0.399,-0.3986,0,0,0,0,0,0,0,0,0,0,0,0,0,-0.433,-0.4327,-0.4167,-0.4166,-0.4165,-0.4082,-0.4081,-0.4079,-0.4084,-0.4085,-0.4087,-0.4088,-0.3994,-0.399,-0.3986,0,0,0,0,0,0,0,0,0,0,0,0,0,-0.4253,-0.4326,-0.4168,-0.4158,-0.4156,-0.4082,-0.408,-0.4079,-0.4083,-0.4085,-0.4087,-0.4089,-0.3996,-0.3991,-0.3985,-0.3914,0,0,-0.3968,-0.3966,0,0,0,0,0,0,0,0,-0.4258,-0.4247,-0.416,-0.4158,-0.4156,-0.4096,-0.4103,-0.4023,-0.4083,-0.4111,-0.4088,-0.409,-0.4025,-0.4017,-0.3997,-0.3909,-0.3905,-0.3968,-0.3964,-0.3962,-0.396,0,0,0,0,0,0,0,-0.4263,-0.4251,-0.4133,-0.4159,-0.4156,-0.4156,-0.4147,-0.4088,-0.4058,-0.4108,-0.4109,-0.4099,-0.4024,-0.4002,-0.3995,-0.3904,-0.3968,-0.3963,-0.396,-0.3957,-0.3755,-0.3753,0,0,0,0,0,0,-0.4271,-0.4255,-0.4136,-0.4131,-0.4213,-0.4151,-0.4141,-0.4113,-0.4059,-0.4053,-0.4097,-0.4099,-0.4011,-0.4001,-0.3992,-0.3906,-0.3962,-0.3957,-0.3954,-0.3757,-0.3755,-0.3752,0,0,0,0,0,0,-0.4275,-0.4261,-0.4139,-0.4193,-0.4178,-0.4147,-0.4114,-0.411,-0.4088,-0.4051,-0.4045,-0.408,-0.4012,-0.3999,-0.3934,-0.3903,-0.3954,-0.3949,-0.3759,-0.3756,-0.3753,-0.3733,0,0,0,0,0,0,-0.4279,-0.4262,-0.4235,-0.4193,-0.4175,-0.4084,-0.4113,-0.4107,-0.408,-0.4081,-0.4033,-0.4027,-0.4012,-0.3942,-0.3929,-0.3896,-0.3945,-0.3762,-0.3758,-0.3754,-0.3736,-0.373,-0.3724,0,0,0,0,0,-0.4285,-0.4231,-0.4234,-0.422,-0.4141,-0.4083,-0.4072,-0.4059,-0.4077,-0.405,-0.4026,-0.4029,-0.3908,-0.3935,-0.392,-0.3885,-0.3764,-0.3759,-0.3755,-0.3739,-0.3731,-0.3724,0,0,0,0,0,0,-0.4268,-0.4225,-0.4228,-0.4159,-0.4125,-0.4084,-0.4049,-0.405,-0.4008,-0.4011,-0.3994,-0.3983,-0.3918,-0.3895,-0.3926,-0.3814,-0.3838,-0.383,-0.3832,-0.3824,-0.3818,-0.3825,-0.3941,0,0,0,0,0,-0.4257,-0.4215,-0.4179,-0.4121,-0.4104,-0.408,-0.4053,-0.4046,-0.4009,-0.3994,-0.3965,-0.3928,-0.3882,-0.3851,-0.3807,-0.3733,-0.3723,-0.3702,-0.3696,-0.3691,-0.3684,-0.3645,-0.3636,-0.3737,-0.3737,-0.3737,0,0,-0.4232,-0.4204,-0.4177,-0.4117,-0.409,-0.4045,-0.4067,-0.4018,-0.3985,-0.3986,-0.3923,-0.3901,-0.3858,-0.3789,-0.3757,-0.3768,-0.3654,-0.3685,-0.3681,-0.3677,-0.3639,-0.363,-0.3621,-0.3734,-0.3734,-0.3735,0,0,-0.4165,-0.4139,-0.4089,-0.4062,-0.4022,-0.4006,-0.3994,-0.3953,-0.3939,-0.3877,-0.3877,-0.3836,-0.3757,-0.3727,-0.3701,-0.3625,-0.3626,-0.3611,-0.3578,-0.354,-0.3532,-0.3525,-0.3499,-0.349,-0.3604,-0.3604,-0.3604,0,-0.4139,-0.4074,-0.4063,-0.4015,-0.3988,-0.399,-0.3939,-0.3912,-0.3858,-0.384,-0.3853,-0.3756,-0.3726,-0.3651,-0.3633,-0.3612,-0.3597,-0.3616,-0.3535,-0.3527,-0.352,-0.3495,-0.3485,-0.3602,-0.3603,-0.3603,-0.3603,0,-0.4044,-0.3999,-0.3963,-0.3914,-0.3884,-0.3834,-0.3815,-0.3785,-0.3781,-0.3763,-0.37,-0.3666,-0.3615,-0.3597,-0.359,-0.3521,-0.3529,-0.3539,-0.3562,-0.3509,-0.3486,-0.3476,-0.36,-0.3601,-0.3601,-0.3602,0,0,-0.3963,-0.391,-0.3897,-0.3876,-0.3832,-0.3796,-0.3747,-0.37,-0.3676,-0.3638,-0.3597,-0.3531,-0.354,-0.3511,-0.3502,-0.3469,-0.3412,-0.3482,-0.3481,-0.3471,-0.3335,-0.3329,-0.3318,-0.3413,-0.3411,-0.341,-0.3339,0,-0.3892,-0.3807,-0.3796,-0.372,-0.3679,-0.368,-0.3638,-0.3606,-0.3588,-0.3549,-0.3529,-0.3484,-0.3499,-0.3482,-0.3449,-0.3426,-0.3385,-0.3431,-0.3374,-0.3372,-0.3385,-0.3305,-0.3297,-0.3232,-0.3329,-0.3328,-0.3326,0,-0.3797,-0.3761,-0.3682,-0.3646,-0.3628,-0.359,-0.3547,-0.351,-0.3474,-0.3464,-0.3433,-0.3428,-0.3377,-0.3403,-0.3332,-0.3364,-0.3339,-0.3325,-0.3322,-0.3316,-0.3346,-0.3298,-0.3211,-0.3201,-0.3311,-0.3313,-0.3314,0,-0.3748,-0.3678,-0.3623,-0.3604,-0.356,-0.3534,-0.3514,-0.348,-0.3453,-0.3415,-0.3397,-0.3352,-0.3328,-0.3293,-0.3277,-0.3297,-0.3207,-0.3231,-0.3197,-0.3197,-0.3177,-0.3179,-0.3086,-0.3161,-0.3161,-0.3161,-0.3161,0,-0.367,-0.3621,-0.36,-0.3566,-0.3512,-0.35,-0.3446,-0.3427,-0.3397,-0.3358,-0.3356,-0.3319,-0.33,-0.326,-0.3246,-0.319,-0.3178,-0.3168,-0.3166,-0.3169,-0.3171,-0.3153,-0.3158,-0.3159,-0.3159,-0.316,-0.316,0,-0.3605,-0.3589,-0.3528,-0.3493,-0.3483,-0.3445,-0.3414,-0.338,-0.3364,-0.3315,-0.3303,-0.3277,-0.323,-0.3211,-0.3152,-0.3143,-0.3079,-0.3079,-0.3092,-0.3092,-0.3058,-0.3062,-0.2952,-0.2937,-0.3021,-0.302,-0.3019,0,-0.3557,-0.352,-0.3482,-0.3457,-0.3437,-0.3397,-0.337,-0.3357,-0.3329,-0.3286,-0.3258,-0.3212,-0.3175,-0.31,-0.3075,-0.3031,-0.303,-0.2994,-0.3023,-0.3029,-0.3031,-0.3034,-0.303,-0.2989,-0.2988,-0.2988,-0.2987,0,-0.3474,-0.3468,-0.3431,-0.3391,-0.336,-0.3328,-0.3296,-0.3275,-0.3257,-0.3225,-0.3179,-0.3151,-0.3093,-0.3048,-0.3003,-0.2981,-0.2981,-0.2979,-0.2968,-0.2972,-0.2982,-0.2977,-0.3079,-0.2981,-0.2982,-0.2982,-0.2982,-0.2983,-0.3416,-0.3385,-0.3353,-0.3312,-0.3288,-0.3259,-0.3226,-0.3207,-0.3169,-0.3123,-0.3116,-0.3067,-0.3033,-0.2973,-0.295,-0.291,-0.2919,-0.2904,-0.29,-0.2897,-0.2896,-0.2988,-0.2902,-0.2902,-0.2902,-0.2902,-0.2902,0,-0.3334,-0.3315,-0.3277,-0.3234,-0.3202,-0.3207,-0.3173,-0.3145,-0.3103,-0.3072,-0.3036,-0.2983,-0.294,-0.2912,-0.2868,-0.2842,-0.2841,-0.2831,-0.2833,-0.2828,-0.289,-0.2903,-0.2833,-0.2833,-0.2833,-0.2833,-0.2833,-0.2833,-0.3288,-0.3235,-0.3226,-0.3161,-0.3141,-0.3095,-0.3075,-0.3048,-0.3023,-0.2966,-0.293,-0.2914,-0.2884,-0.2838,-0.2798,-0.2791,-0.2776,-0.2765,-0.2759,-0.2816,-0.2824,-0.2831,-0.2844,-0.2762,-0.2761,-0.2701,-0.27,-0.27]},{"header":{"parameterUnit":"m.s-1","parameterCategory":1,"la1":30.2991,"la2":30.254,"lo1":-89.0895,"lo2":-89.0444,"dy":0.0017,"dx":0.0017,"nx":28,"ny":28,"refTime":"2023-08-18T03:00:00:Z","depth":0,"parameterNumber":3,"parameterNumberName":"V-component_of_WINDS"},"data":[0,0,0,0,0,0,0,0,0,0,0,0,0,0,0,0,0,0,0,0,0,0,0,0,0,0,0,0,0,0,0,0,0,0,0,0,0,0,0,0,0,0,0,0,0,0,0,0,0,0,0,0,0,0,0,0,0,0,3.5159,3.5159,0,3.5098,3.5098,3.5097,3.5059,3.5059,3.5059,3.5059,3.4994,3.4993,3.4991,0,0,0,0,0,0,0,0,0,0,0,0,0,3.5238,3.5237,3.5159,3.5159,3.5158,3.5098,3.5098,3.5097,3.5059,3.5059,3.5059,3.5059,3.4995,3.4993,3.4991,0,0,0,0,0,0,0,0,0,0,0,0,0,3.5193,3.5237,3.5159,3.5132,3.5129,3.5099,3.5098,3.5096,3.5059,3.5059,3.5059,3.5059,3.4995,3.4993,3.4991,3.4982,0,0,3.4984,3.4983,0,0,0,0,0,0,0,0,3.5196,3.519,3.5137,3.5134,3.513,3.5086,3.5102,3.5058,3.5059,3.5086,3.5059,3.5058,3.5025,3.502,3.5009,3.4979,3.4976,3.4983,3.4982,3.4981,3.498,0,0,0,0,0,0,0,3.5199,3.5193,3.5135,3.5136,3.5132,3.5121,3.5114,3.5093,3.5058,3.5083,3.5081,3.5074,3.5023,3.5012,3.5007,3.4975,3.4984,3.4981,3.498,3.4979,3.493,3.493,0,0,0,0,0,0,3.5207,3.5196,3.5137,3.5133,3.5163,3.512,3.5112,3.5101,3.5058,3.5051,3.5074,3.5072,3.5016,3.501,3.5005,3.4989,3.4981,3.4979,3.4978,3.493,3.493,3.493,0,0,0,0,0,0,3.5209,3.5202,3.5139,3.5164,3.5155,3.5119,3.5106,3.51,3.5088,3.5051,3.5044,3.5069,3.5015,3.5008,3.4987,3.4986,3.4978,3.4976,3.4929,3.493,3.493,3.4958,0,0,0,0,0,0,3.5211,3.5203,3.5201,3.5164,3.5154,3.5124,3.5106,3.5099,3.5084,3.5081,3.5044,3.5038,3.5014,3.4991,3.4985,3.4983,3.4974,3.4929,3.4929,3.493,3.4957,3.496,3.4961,0,0,0,0,0,3.5214,3.5212,3.5201,3.5194,3.5151,3.5125,3.5119,3.5092,3.5085,3.5081,3.5056,3.5039,3.4987,3.4989,3.4982,3.4979,3.4929,3.4929,3.493,3.4957,3.4959,3.4961,0,0,0,0,0,0,3.5251,3.5207,3.5194,3.518,3.5156,3.5118,3.5113,3.5096,3.5074,3.5072,3.5039,3.5031,3.5012,3.4993,3.4996,3.4966,3.4956,3.4955,3.4979,3.4981,3.4983,3.4987,3.4972,0,0,0,0,0,3.5257,3.5241,3.5203,3.5194,3.5183,3.515,3.5138,3.5119,3.5093,3.5082,3.5056,3.503,3.5007,3.4993,3.4971,3.4954,3.4944,3.4948,3.4951,3.4952,3.4951,3.4937,3.4937,3.493,3.493,3.493,0,0,3.527,3.5244,3.5236,3.5201,3.518,3.5162,3.5142,3.5125,3.511,3.5079,3.5057,3.5037,3.5005,3.4985,3.4975,3.4969,3.4951,3.4952,3.4954,3.4952,3.4937,3.4938,3.4938,3.493,3.493,3.493,0,0,3.5284,3.5264,3.5253,3.5231,3.52,3.5177,3.5175,3.5138,3.5123,3.51,3.5076,3.5057,3.502,3.4997,3.4981,3.4981,3.4963,3.4974,3.4984,3.4971,3.4971,3.4971,3.4969,3.4968,3.4974,3.4974,3.4974,0,3.5304,3.5277,3.5249,3.5232,3.5215,3.5186,3.5172,3.5153,3.5116,3.5104,3.5098,3.5047,3.5024,3.4997,3.4996,3.4985,3.4978,3.4979,3.4974,3.4974,3.4973,3.497,3.4969,3.4975,3.4975,3.4975,3.4975,0,3.5301,3.5282,3.5276,3.524,3.5223,3.5208,3.5175,3.5161,3.5143,3.512,3.5095,3.5066,3.5035,3.5027,3.501,3.4995,3.4992,3.498,3.4969,3.4976,3.4972,3.4971,3.4977,3.4977,3.4976,3.4976,0,0,3.5337,3.5284,3.5282,3.5263,3.5225,3.5209,3.519,3.516,3.5147,3.5121,3.5102,3.5069,3.5057,3.5038,3.5017,3.5006,3.5003,3.4995,3.4993,3.4995,3.4981,3.4989,3.4988,3.4991,3.4991,3.4991,3.4983,0,3.5344,3.5311,3.5283,3.526,3.524,3.521,3.5194,3.5167,3.5144,3.5122,3.5097,3.5072,3.506,3.5047,3.5034,3.5007,3.5,3.5007,3.4971,3.497,3.4979,3.4987,3.4996,3.4991,3.4982,3.4981,3.4981,0,3.5347,3.5322,3.5296,3.5256,3.5246,3.5233,3.52,3.5181,3.5148,3.5132,3.5109,3.5086,3.5062,3.5054,3.5018,3.5023,3.5007,3.499,3.4989,3.4984,3.4976,3.498,3.4989,3.4987,3.4979,3.4979,3.4979,0,3.5373,3.5332,3.5311,3.5296,3.5249,3.5239,3.5219,3.5186,3.5168,3.5139,3.5126,3.5095,3.5078,3.5052,3.5021,3.5018,3.4987,3.4977,3.497,3.4971,3.4965,3.4966,3.4969,3.4957,3.4957,3.4957,3.4957,0,3.5382,3.5367,3.5321,3.5308,3.5288,3.5256,3.5237,3.5214,3.5184,3.5163,3.5135,3.5116,3.5076,3.5051,3.5026,3.4998,3.4991,3.4975,3.4968,3.4977,3.4978,3.4965,3.4964,3.4957,3.4957,3.4957,3.4957,0,3.5408,3.5377,3.5351,3.5308,3.5296,3.5284,3.5246,3.523,3.5205,3.5179,3.517,3.513,3.5099,3.5065,3.5022,3.5005,3.4978,3.4969,3.4989,3.4985,3.4979,3.498,3.4973,3.4969,3.4962,3.4962,3.4962,0,3.5415,3.5402,3.5357,3.5342,3.5322,3.5298,3.5279,3.5245,3.5226,3.5185,3.5173,3.514,3.5111,3.5062,3.5027,3.4993,3.4982,3.4982,3.4977,3.4985,3.4979,3.498,3.4977,3.4984,3.4984,3.4984,3.4985,0,3.543,3.5414,3.5389,3.5357,3.5335,3.5308,3.528,3.5269,3.5228,3.5207,3.5175,3.5153,3.5108,3.5074,3.5035,3.5011,3.499,3.4986,3.4982,3.4991,3.5002,3.4993,3.4991,3.4987,3.4987,3.4986,3.4986,3.4986,3.5444,3.543,3.5396,3.5367,3.5342,3.5316,3.5298,3.5269,3.5242,3.5204,3.5185,3.5152,3.5114,3.506,3.5036,3.5008,3.5001,3.4997,3.4995,3.4994,3.4995,3.5007,3.5001,3.5001,3.5001,3.5,3.5,0,3.5455,3.5431,3.5405,3.5366,3.5343,3.5326,3.5292,3.5273,3.5245,3.5213,3.5185,3.5145,3.5111,3.5073,3.5035,3.5019,3.5008,3.501,3.501,3.5004,3.5004,3.501,3.502,3.502,3.502,3.502,3.502,3.502,3.5458,3.5433,3.5413,3.5373,3.5348,3.5316,3.5298,3.5272,3.5246,3.5203,3.5175,3.515,3.5114,3.5073,3.504,3.5029,3.5015,3.502,3.5006,3.5007,3.5005,3.5004,3.5009,3.5018,3.5018,3.5008,3.5008,3.5008]}]]